This is the latest recevied weather packets stored in our database for station/object KB1FFS. If no packets are shown the sender has not sent any weather packets the latest 10 day(s).
| Time | Temp. | Humidity | Pressure | Rain* | Wind** | Luminosity | Snow |
|---|---|---|---|---|---|---|---|
| 1777555004 | 15° C | 85% | 1015.6 hPa | 0 mm | - | 90 W/m² | - |
| 1777554702 | 15° C | 85% | 1015.8 hPa | 0 mm | - | 87 W/m² | - |
| 1777554398 | 15° C | 85% | 1015.7 hPa | 0 mm | - | 78 W/m² | - |
| 1777554095 | 15° C | 85% | 1015.5 hPa | 0 mm | - | 78 W/m² | - |
| 1777553792 | 14.44° C | 86% | 1015.6 hPa | 0 mm | - | 66 W/m² | - |
| 1777553488 | 14.44° C | 85% | 1015.5 hPa | 0 mm | - | 46 W/m² | - |
| 1777553184 | 14.44° C | 85% | 1015.8 hPa | 0 mm | - | 31 W/m² | - |
| 1777552880 | 14.44° C | 85% | 1015.6 hPa | 0 mm | - | 37 W/m² | - |
| 1777552575 | 14.44° C | 85% | 1015.3 hPa | 0 mm | - | 37 W/m² | - |
| 1777552272 | 14.44° C | 85% | 1015.8 hPa | 0 mm | - | 34 W/m² | - |
| 1777551968 | 14.44° C | 85% | 1015.6 hPa | 0 mm | - | 32 W/m² | - |
| 1777551666 | 14.44° C | 85% | 1015.4 hPa | 0 mm | - | 25 W/m² | - |
| 1777551363 | 13.89° C | 85% | 1015.5 hPa | 0 mm | - | 24 W/m² | - |
| 1777551059 | 13.89° C | 86% | 1015.6 hPa | 0 mm | - | 23 W/m² | - |
| 1777550756 | 13.89° C | 86% | 1015.4 hPa | 0 mm | - | 16 W/m² | - |
| 1777550453 | 13.89° C | 86% | 1015.3 hPa | 0 mm | - | 9 W/m² | - |
| 1777550149 | 13.89° C | 86% | 1015.1 hPa | 0 mm | - | 5 W/m² | - |
| 1777549845 | 13.89° C | 86% | 1015.5 hPa | 0 mm | - | 3 W/m² | - |
| 1777549542 | 13.89° C | 88% | 1014.9 hPa | 0 mm | - | 2 W/m² | - |
| 1777549238 | 14.44° C | 88% | 1014.8 hPa | 0 mm | - | 1 W/m² | - |
| 1777548934 | 13.89° C | 85% | 1015.1 hPa | 0 mm | - | 1 W/m² | - |
| 1777548632 | 14.44° C | 84% | 1015.3 hPa | 0 mm | - | 0 W/m² | - |
| 1777548328 | 14.44° C | 84% | 1015.1 hPa | 0 mm | - | 0 W/m² | - |
| 1777548026 | 14.44° C | 84% | 1015.5 hPa | 0 mm | - | 0 W/m² | - |
| 1777547726 | 14.44° C | 84% | 1015.6 hPa | 0 mm | - | 0 W/m² | - |
* Rain latest hour (hover to see other rain measurements)
** Current wind speed in m/s (hover to see current wind gust speed)